www.pogodaiklimat.ru

Погода и климат >> Архив погоды >> Финляндия >> Остров Хармая


ПОГОДА на Острове Хармая

  • Прогноз погоды на Острове Хармая
  • Монитор погоды на Острове Хармая

АРХИВ ПОГОДЫ на Острове Хармая

Время (UTC), дата Ветер
(напр.,м/с)
 
Видим.   Явления Облачность Т
(С)
Тd
(С)
f
(%)
Тe
(С)
Тes
(С)
Комфортность P
(гПа)
Po
(гПа)
Тmin
(С)
Tmax
(С)
R
(мм)
R24
(мм)
S
(см)
04 15.08 ЮЗ 8-11
{12}
35 км в посл. час дождь 9/3 600 м
[]
+15.8 +11.6 77 +14 +14 1007.3 1006.1
05 15.08 ЮЗ 7 50 км 3/3 600 м
[]
+15.7 1007.1 1005.9
06 15.08 ЮЗ 6-7
{8}
40 км {ливн. осадки, дождь} 1/1 2000 м
[]
+15.6 +11.4 76 +14 +15 1007.3 1006.1 +15.1 +16.6
07 15.08 ЮЗ 7 40 км 5/3 1500 м
[]
+16.1 1007.5 1006.3
08 15.08 ЮЗ 8 35 км 5/5 1500 м
[]
+16.2 1007.4 1006.2
09 15.08 З 6-8
{10}
35 км в посл. час дождь {ливн. осадки} 3/3 1500 м
[]
+16.0 +11.7 76 +15 +18 1007.9 1006.7
10 15.08 З 8 45 км 1/1 1000 м
[]
+17.3 1008.1 1006.8
11 15.08 З 7-10
{10}
30 км 1/0 1000 м
[]
+17.9 +11.8 67 +17 +20 1008.4 1007.2
12 15.08 ЮЗ 11-13
{14}
40 км слаб. ливневой дождь 1/1 2000 м
[]
+17.0 +11.4 70 +15 +15 1008.9 1007.7
13 15.08 З 8 45 км ясно +18.3 1009.1 1007.9
14 15.08 ЮЗ 10-11
{13}
40 км 1/0 1000 м
[]
+17.4 +12.1 70 +16 +17 1009.4 1008.2
15 15.08 ЮЗ 11-13
{13}
40 км {ливн. осадки} ясно +17.4 +12.8 74 +16 +16 1009.8 1008.6
16 15.08 З 9 40 км ясно +18.3 1010.1 1008.9
17 15.08 З 10 45 км ясно +18.0 1010.5 1009.3
18 15.08 З 8-10
{10}
45 км {ливн. осадки} ясно +17.4 +9.1 58 +16 +16 1011.4 1010.1 +15.0 +19.0
19 15.08 ЮЗ 8-8
{10}
45 км ясно +16.1 +13.3 84 +14 +14 1011.8 1010.6
20 15.08 З 7-8
{9}
50 км н/о +16.1 +11.9 77 +14 +14 1012.5 1011.3
21 15.08 З 6-8
{9}
50 км н/о +15.7 +12.0 79 +14 +14 1013.1 1011.8
22 15.08 З 5 50 км н/о +15.6 1013.2 1012.0
23 15.08 З 5 50 км н/о +15.6 1013.5 1012.3
00 16.08 ЮЗ 6-6
{7}
40 км н/о +15.3 +13.3 88 +14 +14 1013.7 1012.4
01 16.08 ЮЗ 5 40 км н/о +15.4 1013.8 1012.5
02 16.08 ЮЗ 4-5
{6}
50 км н/о +15.5 +12.6 84 +14 +14 1013.9 1012.6
03 16.08 ЮЗ 5-5
{5}
40 км н/о +15.5 +12.9 84 +14 +14 1014.1 1012.8
04 16.08 ЮЗ 5 45 км н/о +15.7 1014.3 1013.0
05 16.08 ЮЗ 5-7
{7}
50 км н/о +16.1 +13.3 83 +15 +15 1014.6 1013.4
06 16.08 Ю 7-8
{8}
29 км н/о +16.2 +14.5 90 +15 +15 1014.9 1013.6 +15.2 +17.4
07 16.08 ЮЗ 7 28 км н/о +16.5 1015.1 1013.8
08 16.08 Ю 6 28 км 9/9
[]
+16.3 1015.2 1014.0
09 16.08 ЮЗ 6-7
{7}
40 км 9/9
[]
+16.8 +14.9 89 +16 +18 1015.5 1014.2
10 16.08 ЮЗ 5-7
{8}
30 км 8/0
[]
+17.5 +15.1 84 +17 +20 1015.6 1014.4
11 16.08 ЮЗ 5 27 км 9/9
[]
+17.2 1015.7 1014.5
12 16.08 ЮЗ 6-7
{7}
24 км 5/5
[]
+17.7 +15.6 88 +17 +20 1015.8 1014.6
13 16.08 ЮЗ 6 28 км 4/4
[]
+18.2 1015.8 1014.5
14 16.08 ЮЗ 4 28 км 9/9
[]
+17.3 1015.9 1014.6
15 16.08 Ю 3-3
{5}
30 км 9/9
[]
+17.3 +15.3 88 +17 +19 1015.7 1014.4
16 16.08 Ю 4 40 км 9/9
[]
+17.2 1015.6 1014.4
17 16.08 Ю 4-4
{5}
35 км 10/10
[]
+17.1 +14.6 86 +17 +17 1015.6 1014.4
18 16.08 ЮВ 5-5
{5}
40 км 10/10
[]
+17.1 +14.6 85 +16 +16 1015.6 1014.4 +16.2 +18.2
19 16.08 ЮВ 4 35 км 10/10 2000 м
[]
+17.0 1015.7 1014.4
20 16.08 ЮВ 5-6
{6}
35 км 9/9
[]
+17.1 +15.1 89 +16 +16 1015.6 1014.3
21 16.08 ЮВ 5-5
{7}
40 км слаб. ливневой дождь 9/9
[]
+17.0 +15.4 90 +16 +16 1015.7 1014.4
22 16.08 ЮВ 5 30 км 9/9
[]
+17.1 1015.6 1014.3
23 16.08 ЮВ 6 45 км 9/9
[]
+17.1 1015.5 1014.2
00 17.08 ЮВ 6-7
{7}
45 км {ливн. осадки, дождь} 8/8
[]
+16.8 +14.6 87 +16 +16 1015.3 1014.1
01 17.08 ЮВ 7 40 км 9/9
[]
+16.9 1015.1 1013.9
02 17.08 ЮВ 7-9
{9}
45 км 10/0
[]
+16.8 +14.4 86 +16 +16 1014.9 1013.7
03 17.08 Ю 8-9
{10}
35 км 10/10
[]
+16.8 +14.2 85 +15 +15 1014.7 1013.5
04 17.08 Ю 8 30 км 10/10 2000 м
[]
+16.7 1014.8 1013.6
05 17.08 Ю 7 30 км 10/10 2000 м
[]
+16.5 1015.1 1013.9
06 17.08 Ю 6-7
{7}
30 км 6/6 2000 м
[]
+16.3 +14.3 88 +15 +16 1015.2 1014.0 +16.3 +17.2
07 17.08 Ю 5-6
{7}
23 км 9/9
[]
+16.6 +14.5 86 +16 +18 1015.3 1014.1
08 17.08 Ю 6 29 км 3/3 2000 м
[]
+16.8 1015.5 1014.3
09 17.08 Ю 5-6
{7}
25 км 3/3
[]
+17.7 +14.6 82 +17 +21 1015.8 1014.5
10 17.08 Ю 5 30 км 9/9
[]
+17.4 1015.8 1014.6
11 17.08 ЮВ 3 30 км 9/9 2000 м
[]
+18.1 1015.8 1014.6
12 17.08 ЮВ 2-2
{4}
27 км 6/1 1000 м
[]
+19.5 +15.0 75 +22 +28 комфорт 1015.5 1014.3
13 17.08 В 3 21 км 6/6 1500 м
[]
+18.3 1015.2 1014.0
14 17.08 В 5 20 км 10/10 2000 м
[]
+17.8 1014.9 1013.7
15 17.08 В 4-5
{7}
23 км {дымка} 1/1 2000 м
[]
+18.1 +15.8 86 +18 +20 1014.6 1013.4
16 17.08 В 4 24 км 9/0 2000 м
[]
+18.1 1014.4 1013.2
17 17.08 В 2-3
{5}
18 км 9/9 2000 м
[]
+17.6 +16.1 91 +18 +18 1014.4 1013.2
18 17.08 ЮВ 4-4
{4}
21 км {дымка} ясно +17.7 +15.7 88 +17 +17 1014.2 1013.0 +16.3 +19.9
19 17.08 ЮВ 5 30 км 3/3 2000 м
[]
+17.8 1014.1 1012.9
20 17.08 ЮВ 5 35 км 9/9 2000 м
[]
+17.8 1014.0 1012.8
21 17.08 ЮВ 9-10
{10}
35 км 9/9
[]
+18.2 +14.8 81 +17 +17 1013.9 1012.6
22 17.08 ЮВ 8 40 км 6/6 2000 м
[]
+17.8 1013.8 1012.5
23 17.08 ЮВ 8-10
{10}
45 км 9/9
[]
+17.7 +14.3 80 +17 +17 1013.7 1012.5
00 18.08 Ю 9-10
{10}
35 км 5/5
[]
+17.5 +13.9 79 +16 +16 1013.4 1012.2
01 18.08 Ю 9 40 км 1/1
[]
+17.3 1013.4 1012.2
02 18.08 Ю 9 35 км 1/1
[]
+17.2 1013.1 1011.8
03 18.08 Ю 9-10
{10}
29 км 8/8
[]
+17.1 +13.4 79 +16 +16 1012.9 1011.6
04 18.08 Ю 7 35 км 1/1
[]
+16.7 1013.0 1011.8
05 18.08 Ю 7 30 км 1/1
[]
+16.8 1012.9 1011.7
06 18.08 ЮВ 7-8
{8}
30 км ясно +17.0 +13.5 80 +16 +17 1012.9 1011.7 +16.7 +18.4
07 18.08 ЮВ 6 29 км 10/10 2000 м
[]
+17.3 1012.9 1011.7
08 18.08 ЮВ 9-11
{11}
30 км 9/9 2000 м
[]
+17.8 +13.4 76 +17 +17 1012.5 1011.3
09 18.08 ЮВ 8-9
{10}
28 км 9/9 2000 м
[]
+18.0 +14.3 79 +17 +18 1012.4 1011.1
10 18.08 В 7 24 км 9/9 2000 м
[]
+17.8 1012.4 1011.2
11 18.08 В 9 25 км 9/9 2000 м
[]
+18.0 1012.2 1011.0
12 18.08 В 9-10
{10}
22 км 3/3 2000 м
[]
+18.2 +13.8 75 +17 +18 1011.9 1010.7
13 18.08 В 8-9
{10}
26 км 4/0
[]
+18.1 +13.8 76 +17 +18 1011.9 1010.7
14 18.08 В 9-9
{10}
24 км ясно +18.2 +13.8 76 +17 +18 1011.6 1010.4
15 18.08 В 9-11
{11}
30 км 4/4 2000 м
[]
+17.8 +13.9 78 +17 +17 1011.0 1009.7
16 18.08 В 9 35 км 9/1 1500 м
[]
+17.7 1010.9 1009.7
17 18.08 В 7 30 км 9/9 1500 м
[]
+17.7 1010.9 1009.6
18 18.08 ЮВ 9-10
{10}
35 км 10/9 1500 м
[]
+17.7 +15.0 84 +17 +17 1010.3 1009.0 +16.9 +18.4
19 18.08 ЮВ 9-10
{10}
35 км 9/1 1500 м
[]
+17.8 +14.8 83 +17 +17 1010.1 1008.9
20 18.08 ЮВ 10 40 км 10/10
[]
+18.0 1009.5 1008.3
21 18.08 ЮВ 9-10
{10}
35 км 9/5 2000 м
[]
+17.6 +14.3 81 +16 +16 1009.5 1008.2
22 18.08 ЮВ 9 40 км 9/9 2000 м
[]
+17.7 1009.1 1007.9
23 18.08 ЮВ 10-12
{12}
35 км осадки 10/3 1500 м
[]
+18.2 +13.9 77 +17 +17 1008.7 1007.5
00 19.08 ЮВ 10-13
{13}
40 км 10/10
[]
+17.7 +13.9 78 +16 +16 1008.1 1006.8
01 19.08 ЮВ 11-12
{13}
11 км слаб. дождь 10/0 2000 м
[]
+17.7 +14.0 80 +16 +16 1007.5 1006.3
02 19.08 ЮВ 9 30 км слаб. ливневой дождь 10/10 1500 м
[]
+17.3 1006.9 1005.7
03 19.08 ЮВ 8-10
{10}
20 км слаб. дождь 10/3 1500 м
[]
+17.2 +14.3 83 +16 +16 1006.7 1005.4
04 19.08 Ю 8 30 км слаб. ливневой дождь 10/10 1500 м
[]
+17.1 1006.6 1005.4
05 19.08 Ю 10 13 км слаб. ливневой дождь 10/10 1500 м
[]
+16.9 1006.2 1005.0
06 19.08 Ю 8-9
{11}
3600 м дождь {ливн. осадки} 10/10 1000 м
[]
+16.0 +14.9 93 +14 +14 1006.5 1005.3 +16.0 +18.3
07 19.08 ЮВ 7 13 км слаб. дождь 10/10 1000 м
[]
+16.1 1006.1 1004.9
08 19.08 ЮВ 9-11
{11}
30 км в посл. час морось 10/10 1000 м
[]
+16.9 +14.7 87 +15 +15 1006.2 1005.0
09 19.08 Ю 8-11
{12}
14 км {дождь, метель} 10/10 300 м
[]
+17.4 +15.1 86 +16 +17 1006.5 1005.3
10 19.08 ЮЗ 8-10
{11}
9000 м дымка 10/0 200 м
[]
+17.0 +16.6 96 +16 +17 1007.0 1005.8
11 19.08 ЮЗ 8 35 км 5/5
[]
+17.5 1007.5 1006.3
12 19.08 ЮЗ 10-12
{12}
40 км {дождь, метель} 3/0
[]
+17.3 +14.8 85 +16 +16 1008.7 1007.5
13 19.08 ЮЗ 10 30 км 1/0
[]
+17.1 1009.2 1008.0
14 19.08 ЮЗ 11 35 км 9/0
[]
+16.9 1010.1 1008.9
15 19.08 ЮЗ 10-12
{13}
40 км ясно +17.2 +14.3 83 +16 +16 1011.0 1009.8
16 19.08 ЮЗ 9 35 км ясно +16.8 1011.5 1010.2
17 19.08 ЮЗ 9 35 км ясно +16.8 1012.0 1010.8
18 19.08 ЮЗ 8-9
{11}
40 км ясно +16.4 +14.5 89 +15 +15 1012.5 1011.3 +15.9 +17.6
19 19.08 ЮЗ 9 30 км ясно +16.2 1012.9 1011.7
20 19.08 ЮЗ 8-10
{10}
30 км ясно +16.1 +14.3 89 +14 +14 1013.4 1012.2
21 19.08 ЮЗ 7-8
{9}
30 км ясно +16.1 +14.1 88 +15 +15 1014.0 1012.7
22 19.08 ЮЗ 6 24 км ясно +15.9 1014.3 1013.0
23 19.08 ЮЗ 7 23 км ясно +15.9 1014.4 1013.2
00 20.08 ЮЗ 7-7
{8}
19 км ясно +16.0 +14.9 93 +14 +14 1014.6 1013.4
01 20.08 Ю 7-7
{8}
17 км 6/0 200 м
[]
+16.2 +15.5 95 +15 +15 1015.0 1013.8
02 20.08 ЮЗ 8 17 км 9/9 300 м
[]
+16.2 1015.6 1014.4
03 20.08 Ю 8-9
{9}
13 км 4/4 300 м
[]
+16.1 +15.4 96 +14 +14 1015.9 1014.7
04 20.08 Ю 7 14 км 4/4 100 м
[]
+16.2 1016.2 1015.0
05 20.08 Ю 8-9
{10}
15 км 5/5 200 м
[]
+16.4 +15.5 94 +15 +15 1016.5 1015.2
06 20.08 Ю 9-11
{11}
19 км 9/9 200 м
[]
+16.5 +15.4 93 +15 +15 1016.9 1015.6 +15.8 +16.5
07 20.08 ЮЗ 8 18 км 9/9 300 м
[]
+16.5 1017.3 1016.1
08 20.08 Ю 10 22 км 4/4 200 м
[]
+16.9 1017.7 1016.4
09 20.08 ЮЗ 8-10
{11}
22 км 4/4 200 м
[]
+17.5 +15.8 90 +16 +17 1018.0 1016.7
10 20.08 ЮЗ 9-10
{10}
20 км ясно +17.8 +15.8 88 +17 +18 1018.1 1016.9
11 20.08 ЮЗ 8 23 км ясно +18.0 1018.4 1017.2
12 20.08 ЮЗ 9-11
{11}
18 км ясно +17.8 +15.5 86 +17 +18 1018.8 1017.6
13 20.08 ЮЗ 9-11
{11}
19 км ясно +17.9 +15.2 85 +17 +17 1019.2 1017.9
14 20.08 ЮЗ 9 25 км ясно +17.6 1019.5 1018.3
15 20.08 ЮЗ 10-12
{12}
24 км ясно +17.2 +15.0 87 +16 +16 1019.8 1018.6
16 20.08 ЮЗ 9 22 км ясно +16.9 1019.9 1018.7
17 20.08 ЮЗ 8 19 км ясно +16.7 1020.1 1018.9
18 20.08 ЮЗ 7-8
{9}
17 км ясно +16.5 +15.0 91 +15 +15 1020.5 1019.2 +16.3 +18.1
19 20.08 ЮЗ 6 16 км ясно +16.3 1020.6 1019.4
20 20.08 ЮЗ 7 19 км ясно +16.5 1020.8 1019.6
21 20.08 ЮЗ 7-8
{8}
19 км ясно +16.7 +15.0 90 +15 +15 1021.0 1019.7
22 20.08 ЮЗ 6 20 км 1/1 300 м
[]
+16.4 1021.2 1019.9
23 20.08 ЮЗ 7 21 км ясно +16.5 1021.3 1020.1
00 21.08 ЮЗ 6-7
{8}
16 км ясно +16.1 +15.3 95 +15 +15 1021.8 1020.5
01 21.08 ЮЗ 5 15 км 1/1 300 м
[]
+16.0 1022.0 1020.7
02 21.08 ЮЗ 6-8
{8}
12 км 1/0 200 м
[]
+16.1 +15.5 96 +15 +15 1022.0 1020.7
03 21.08 ЮЗ 6-7
{8}
13 км ясно +16.1 +15.3 95 +15 +15 1021.9 1020.7
04 21.08 ЮЗ 6-8
{8}
13 км 4/3 300 м
[]
+16.2 +15.4 95 +15 +15 1022.1 1020.8
05 21.08 ЮЗ 7 14 км ясно +16.2 1022.3 1021.0
06 21.08 Ю 7-8
{8}
13 км ясно +16.3 +15.5 95 +15 +16 1022.3 1021.0 +16.0 +16.8
07 21.08 Ю 6 11 км ясно +16.4 1022.5 1021.3
08 21.08 Ю 7 13 км 1/1 100 м
[]
+16.5 1022.4 1021.2
09 21.08 Ю 6-8
{8}
14 км 6/6 100 м
[]
+16.8 +15.5 92 +16 +18 1022.6 1021.3
10 21.08 Ю 6 17 км 1/0
[]
+17.1 1022.3 1021.0
11 21.08 Ю 5 13 км 6/0
[]
+17.2 1021.9 1020.7
12 21.08 Ю 5-6
{6}
18 км 3/0
[]
+17.7 +15.9 89 +17 +21 1021.5 1020.3
13 21.08 Ю 5 20 км 5/0
[]
+17.8 1021.3 1020.0
14 21.08 Ю 5 18 км 3/0
[]
+17.5 1020.8 1019.5
15 21.08 Ю 4-5
{6}
19 км 9/8
[]
+17.4 +15.5 89 +17 +17 1020.6 1019.3
16 21.08 Ю 5 22 км 8/1
[]
+17.4 1020.6 1019.4
17 21.08 Ю 7 24 км 9/1 2000 м
[]
+17.0 1020.5 1019.3
18 21.08 ЮЗ 7-9
{9}
30 км 6/6 2000 м
[]
+16.7 +15.1 90 +15 +15 1020.5 1019.2 +16.3 +18.0
19 21.08 ЮЗ 7 30 км 1/0
[]
+16.3 1020.6 1019.3
20 21.08 З 6 30 км 1/1 1000 м
[]
+16.1 1020.6 1019.4
21 21.08 З 7-8
{9}
35 км ясно +15.8 +13.0 83 +14 +14 1020.9 1019.7
22 21.08 З 6 40 км ясно +15.4 1020.8 1019.6
23 21.08 З 6-7
{7}
35 км ясно +15.2 +13.2 88 +14 +14 1020.9 1019.7
00 22.08 З 6-7
{7}
35 км ясно +15.3 +13.4 88 +14 +14 1021.1 1019.8
01 22.08 З 4-5
{6}
30 км ясно +15.1 +13.7 91 +14 +14 1021.3 1020.0
02 22.08 З 4 20 км ясно +15.1 1021.4 1020.1

 

Местоположение метеостанции Остров Хармая (Финляндия): широта 60.10 долгота 24.98 высота над уровнем моря 3 м.

В архиве по умолчанию представлена погода на Острове Хармая за последнюю неделю. Архивные данные за месяц целиком и за предыдущие месяцы, начиная с января 2011 года, Вы можете получить, выбрав интересующий диапазон дат из раскрывающегося списка и нажав кнопку "Ввод!".


*Определитесь, кто Вы:
робот инопланетянин человек

Внимание! Время в таблицах - всемирное. Для получения местного времени необходимо прибавить поправку, которая равна 1 ч.

Смотрите также архив погоды в соседних городах и на ближайших метеорологических станциях:

Погода в Хельсинки Кайсаниеми (Финляндия) (9 км)
Погода в Хельсинки университете (Финляндия) (11 км)
Погода в Эспо Тапиола (Финляндия) (14 км)
Погода на Хельсинском маяке (Финляндия) (17 км)
Погода в Хельсинки (Финляндия) (26 км)
Погода в Эспо Нууксио (Финляндия) (31 км)
Погода на Маяке Kalbadagrund (Финляндия) (37 км)
Погода на Эмасало (Финляндия) (38 км)
Погода в Килпилахти (Финляндия) (39 км)
Погода на Острове Мякилюото (Финляндия) (40 км)

Пояснения к столбцам:

Ветер - указаны скорость ветра в м/с - средняя за 10 мин, порывы в срок и между сроками (в фигурных скобках) и направление, откуда дует ветер: С - северный, СВ - северо-восточный, В - восточный, ЮВ - юго-восточный, Ю - южный, ЮЗ - юго-западный, З - западный, СЗ - северо-западный.
Видимость - горизонтальная дальность видимости в метрах или километрах. При видимости от 1 до 10 км при отсутствии осадков обычно наблюдается дымка, при ухудшении видимости до 1 км и менее - туман. В сухую погоду видимость может ухудшаться дымом, пылью или мглою.
Явления - указаны атмосферные явления, наблюдавшиеся в срок или в последний час перед сроком; фигурными скобками обозначены явления, наблюдавшиеся между сроками (за 1-3 часа до срока); квадратными скобками обозначены град или гололедные отложения с указанием их диаметра в мм.
Облачность - указаны через наклонную черту общая и нижняя облачность в баллах и высота нижней границы облаков в метрах; квадратными скобками обозначены формы облаков: Ci - перистые, Cs - перисто-слоистые, Cc - перисто-кучевые, Ac - высококучевые, As - высокослоистые, Sc - слоисто-кучевые, Ns - слоисто-дождевые, Cu - кучевые, Cb - кучево-дождевые. Подробнее классификацию облаков см. в Атласе облаков (PDF).
T - Температура воздуха - температура, измеренная на высоте 2 м над землей.
Td - Температура точки росы - температура, при понижении до которой содержащийся в воздухе водяной пар достигнет насыщения.
f - Относительная влажность воздуха - влажноcть воздуха, измеренная на высоте 2 м над землей.
Te - Эффективная температура - температура, которую ощущает одетый по сезону человек в тени. Характеристика душности погоды. При расчете учитывается влияние влажности воздуха и скорости ветра на теплоощущения человека.
Tes - Эффективная температура на солнце - температура, которую ощущает человек, с поправкой на солнечный нагрев. Характеристика знойности погоды. Зависит от высоты солнца над горизонтом, облачности и скорости ветра. Ночью, в пасмурную погоду, а также при ветре 12 м/с и более поправка равна нулю.
P - Атмосферное давление - приведенное к уровню моря атмосферное давление.
Po - Атмосферное давление - измеренное на уровне метеостанции атмосферное давление.
Tmin - Минимальная температура - минимум температуры воздуха на высоте 2 м над землей.
Tmax - Максимальная температура - максимум температуры воздуха на высоте 2 м над землей.
R - Количество осадков - Количество выпавших осадков за период времени, мм. При наведении курсора мыши на число - период времени, за который выпало указанное количество осадков.
R24 - Количество осадков - Количество выпавших осадков за 24 часа, мм.
S - Снежный покров - Высота снежного покрова, см. При наведении курсора мыши на число - состояние снежного покрова и степень покрытия местности в баллах.